This is the latest recevied weather packets stored in our database for station/object iw0uwf-4. If no packets are shown the sender has not sent any weather packets the latest 1 day(s).
| Time | Temp. | Humidity | Pressure | Rain* | Wind** | Luminosity | Snow |
|---|---|---|---|---|---|---|---|
| 1778032743 | 14.44° C | 79% | 1003.7 hPa | 0 mm | 2.68 m/s, 270° | 0 W/m² | - |
| 1778032683 | 14.44° C | 79% | 1003.7 hPa | 0 mm | 3.13 m/s, 274° | 0 W/m² | - |
| 1778032623 | 14.44° C | 79% | 1003.8 hPa | 0 mm | 3.13 m/s, 269° | 0 W/m² | - |
| 1778032563 | 14.44° C | 79% | 1003.8 hPa | 0 mm | 3.13 m/s, 273° | 0 W/m² | - |
| 1778032503 | 14.44° C | 79% | 1003.6 hPa | 0 mm | 3.13 m/s, 275° | 0 W/m² | - |
| 1778032443 | 14.44° C | 78% | 1003.7 hPa | 0 mm | 3.13 m/s, 272° | 0 W/m² | - |
| 1778032383 | 14.44° C | 78% | 1003.6 hPa | 0 mm | 3.13 m/s, 273° | 0 W/m² | - |
| 1778032323 | 14.44° C | 78% | 1003.8 hPa | 0 mm | 3.13 m/s, 265° | 0 W/m² | - |
| 1778032263 | 14.44° C | 78% | 1003.7 hPa | 0 mm | 2.68 m/s, 264° | 0 W/m² | - |
| 1778032203 | 14.44° C | 77% | 1003.8 hPa | 0 mm | 2.68 m/s, 265° | 0 W/m² | - |
| 1778032143 | 14.44° C | 77% | 1003.9 hPa | 0 mm | 3.13 m/s, 251° | 0 W/m² | - |
| 1778032083 | 14.44° C | 77% | 1003.6 hPa | 0 mm | 3.13 m/s, 248° | 0 W/m² | - |
| 1778032023 | 14.44° C | 77% | 1003.7 hPa | 0 mm | 3.13 m/s, 251° | 0 W/m² | - |
| 1778031963 | 14.44° C | 76% | 1003.9 hPa | 0 mm | 3.13 m/s, 246° | 0 W/m² | - |
| 1778031904 | 14.44° C | 76% | 1004 hPa | 0 mm | 3.13 m/s, 250° | 0 W/m² | - |
| 1778031844 | 14.44° C | 76% | 1003.8 hPa | 0 mm | 3.13 m/s, 255° | 0 W/m² | - |
| 1778031784 | 14.44° C | 76% | 1003.9 hPa | 0 mm | 3.13 m/s, 260° | 0 W/m² | - |
| 1778031724 | 14.44° C | 76% | 1003.9 hPa | 0 mm | 3.13 m/s, 268° | 0 W/m² | - |
| 1778031664 | 14.44° C | 76% | 1003.9 hPa | 0 mm | 3.13 m/s, 267° | 0 W/m² | - |
| 1778031604 | 14.44° C | 76% | 1003.8 hPa | 0 mm | 3.13 m/s, 267° | 0 W/m² | - |
| 1778031544 | 14.44° C | 76% | 1003.9 hPa | 0 mm | 3.13 m/s, 265° | 0 W/m² | - |
| 1778031484 | 14.44° C | 76% | 1003.8 hPa | 0 mm | 3.13 m/s, 253° | 0 W/m² | - |
| 1778031424 | 14.44° C | 76% | 1003.7 hPa | 0 mm | 3.13 m/s, 251° | 0 W/m² | - |
| 1778031364 | 14.44° C | 76% | 1003.8 hPa | 0 mm | 3.13 m/s, 264° | 0 W/m² | - |
| 1778031303 | 14.44° C | 76% | 1003.8 hPa | 0 mm | 3.13 m/s, 263° | 0 W/m² | - |
* Rain latest hour (hover to see other rain measurements)
** Current wind speed in m/s (hover to see current wind gust speed)